This is the latest recevied weather packets stored in our database for station/object KU9TRY. If no packets are shown the sender has not sent any weather packets the latest 10 day(s).
| Time | Temp. | Humidity | Pressure | Rain* | Wind** | Luminosity | Snow |
|---|---|---|---|---|---|---|---|
| 1788097478 | 26.67° C | 79% | 1021.7 hPa | 0 mm | - | 363 W/m² | - |
| 1788097174 | 26.67° C | 81% | 1021.6 hPa | 0 mm | - | 169 W/m² | - |
| 1788096869 | 25.56° C | 84% | 1021.6 hPa | 0 mm | - | 191 W/m² | - |
| 1788096564 | 25° C | 85% | 1021.7 hPa | 0 mm | - | 134 W/m² | - |
| 1788096261 | 25° C | 87% | 1021.7 hPa | 0 mm | - | 97 W/m² | - |
| 1788095960 | 24.44° C | 88% | 1021.7 hPa | 0 mm | - | 92 W/m² | - |
| 1788095659 | 23.89° C | 89% | 1021.7 hPa | 0 mm | - | 88 W/m² | - |
| 1788095354 | 23.33° C | 90% | 1021.7 hPa | 0 mm | - | 83 W/m² | - |
| 1788095050 | 22.78° C | 91% | 1021.7 hPa | 0 mm | - | 87 W/m² | - |
| 1788094748 | 22.78° C | 92% | 1021.7 hPa | 0 mm | - | 78 W/m² | - |
| 1788094444 | 22.22° C | 93% | 1021.6 hPa | 0 mm | - | 75 W/m² | - |
| 1788094142 | 22.22° C | 93% | 1021.8 hPa | 0 mm | - | 72 W/m² | - |
| 1788093837 | 21.67° C | 94% | 1021.6 hPa | 0 mm | - | 68 W/m² | - |
| 1788093534 | 21.67° C | 94% | 1021.8 hPa | 0 mm | - | 65 W/m² | - |
| 1788093230 | 21.11° C | 96% | 1021.6 hPa | 0 mm | - | 62 W/m² | - |
| 1788092928 | 20.56° C | 97% | 1021.5 hPa | 0 mm | - | 57 W/m² | - |
| 1788092622 | 20.56° C | 98% | 1021.4 hPa | 0 mm | - | 53 W/m² | - |
| 1788092317 | 20.56° C | 98% | 1021.4 hPa | 0 mm | - | 50 W/m² | - |
| 1788092017 | 20° C | 99% | 1021.2 hPa | 0 mm | - | 46 W/m² | - |
| 1788091712 | 20° C | 99% | 1021.1 hPa | 0 mm | - | 46 W/m² | - |
| 1788091408 | 20° C | 99% | 1021.1 hPa | 0 mm | - | 38 W/m² | - |
| 1788091104 | 20° C | 99% | 1021 hPa | 0 mm | - | 34 W/m² | - |
| 1788090801 | 20° C | 99% | 1021.2 hPa | 0 mm | - | 30 W/m² | - |
| 1788090496 | 20° C | 99% | 1021 hPa | 0 mm | - | 26 W/m² | - |
| 1788090192 | 20° C | 99% | 1021.2 hPa | 0 mm | - | 21 W/m² | - |
* Rain latest hour (hover to see other rain measurements)
** Current wind speed in m/s (hover to see current wind gust speed)